GW1395 Weather Reports


Display with metric or nautical units.
time (UTC)temp
F
wind
direction
speed
MPH
gust
MPH
rain 1hr
in
rain 24hr
in
rain mn
in
humidity
%
barometer
mb
20260510220023 70 118 8.0 17.0 0.00 0.00 0.00 34 1024.9
20260510214509 71 78 7.0 16.0 0.00 0.00 0.00 33 1024.9
20260510213013 71 111 6.0 14.0 0.00 0.00 0.00 31 1024.9
20260510211516 71 97 8.0 15.0 0.00 0.00 0.00 32 1024.9
20260510210021 68 106 6.0 15.0 0.00 0.00 0.00 34 1025.0
20260510204525 68 104 7.0 14.0 0.00 0.00 0.00 35 1025.0
20260510203011 70 115 8.0 15.0 0.00 0.00 0.00 32 1025.0
20260510201514 71 161 5.0 14.0 0.00 0.00 0.00 30 1024.8
20260510200022 75 138 6.0 14.0 0.00 0.00 0.00 26 1024.4
20260510194527 76 130 5.0 12.0 0.00 0.00 0.00 25 1024.4
20260510193030 75 188 4.0 11.0 0.00 0.00 0.00 26 1024.4
20260510191512 73 109 3.0 11.0 0.00 0.00 0.00 28 1024.5
20260510190022 69 118 3.0 8.0 0.00 0.00 0.00 31 1024.8
20260510184531 68 113 2.0 5.0 0.00 0.00 0.00 31 1024.8
20260510183026 68 107 2.0 9.0 0.00 0.00 0.00 31 1024.9
20260510181526 71 115 4.0 8.0 0.00 0.00 0.00 29 1024.8
20260510180021 71 118 3.0 8.0 0.00 0.00 0.00 30 1024.9
20260510174523 68 128 3.0 9.0 0.00 0.00 0.00 32 1024.8
20260510173025 67 123 4.0 10.0 0.00 0.00 0.00 33 1024.7
20260510171528 68 99 3.0 10.0 0.00 0.00 0.00 31 1024.5
20260510170014 71 142 5.0 14.0 0.00 0.00 0.00 27 1024.4
20260510164519 73 94 4.0 13.0 0.00 0.00 0.00 25 1024.3
20260510163004 72 103 4.0 10.0 0.00 0.00 0.00 26 1024.3
20260510161509 72 96 3.0 10.0 0.00 0.00 0.00 26 1024.3
20260510160015 71 120 3.0 8.0 0.00 0.00 0.00 26 1024.2
20260510154518 71 101 4.0 10.0 0.00 0.00 0.00 27 1024.1
20260510153003 69 146 3.0 8.0 0.00 0.00 0.00 28 1024.0
20260510151507 69 140 5.0 9.0 0.00 0.00 0.00 29 1024.1
20260510150012 67 145 3.0 10.0 0.00 0.00 0.00 30 1024.0
20260510144522 67 167 4.0 13.0 0.00 0.00 0.00 30 1023.8
20260510143028 66 144 3.0 10.0 0.00 0.00 0.00 31 1023.7
20260510141509 66 107 3.0 6.0 0.00 0.00 0.00 30 1023.7
20260510140008 65 258 2.0 5.0 0.00 0.00 0.00 31 1023.5
20260510134513 63 165 1.0 2.0 0.00 0.00 0.00 32 1023.5
20260510133022 60 147 1.0 2.0 0.00 0.00 0.00 36 1023.4
20260510131523 57 130 0.0 2.0 0.00 0.00 0.00 37 1023.2
20260510130010 55 145 0.0 2.0 0.00 0.00 0.00 39 1023.1
20260510124512 56 145 0.0 2.0 0.00 0.00 0.00 37 1022.9
20260510123017 57 145 0.0 0.0 0.00 0.00 0.00 35 1022.7
20260510121522 58 145 0.0 2.0 0.00 0.00 0.00 33 1022.5
20260510120025 59 165 0.0 2.0 0.00 0.00 0.00 32 1022.3
20260510114511 60 174 1.0 5.0 0.00 0.00 0.00 32 1022.2
20260510113014 61 139 2.0 4.0 0.00 0.00 0.00 30 1022.2
20260510111518 61 172 1.0 6.0 0.00 0.00 0.00 29 1022.4
20260510110033 61 330 6.0 13.0 0.00 0.00 0.00 29 1022.7
20260510104527 59 261 1.0 2.0 0.00 0.00 0.00 27 1022.0
20260510103019 58 243 0.0 3.0 0.00 0.00 0.00 27 1021.7
20260510101519 57 198 0.0 2.0 0.00 0.00 0.00 28 1021.4
20260510100022 57 198 0.0 1.0 0.00 0.00 0.00 28 1021.3
20260510094525 56 119 0.0 3.0 0.00 0.00 0.00 28 1021.3
20260510093010 56 263 0.0 0.0 0.00 0.00 0.00 28 1021.2
20260510091518 57 263 0.0 2.0 0.00 0.00 0.00 27 1021.0
20260510090038 58 244 0.0 1.0 0.00 0.00 0.00 26 1021.1
20260510084523 58 228 1.0 4.0 0.00 0.00 0.00 26 1021.0
20260510083028 57 327 0.0 2.0 0.00 0.00 0.00 26 1020.6
20260510081514 56 327 0.0 2.0 0.00 0.00 0.00 27 1020.5
20260510080020 55 327 0.0 2.0 0.00 0.00 0.00 27 1020.4
20260510074524 55 327 0.0 2.0 0.00 0.00 0.00 26 1020.3
20260510073025 56 327 0.0 2.0 0.00 0.00 0.00 26 1020.4
20260510071511 57 327 0.0 1.0 0.00 0.00 0.00 25 1020.3
20260510070018 58 327 0.0 1.0 0.00 0.00 0.00 24 1020.2
20260510064504 59 334 0.0 2.0 0.00 0.00 0.00 23 1020.0
20260510063006 59 336 0.0 2.0 0.00 0.00 0.00 22 1020.0
20260510061510 61 331 0.0 3.0 0.00 0.00 0.00 21 1019.8
20260510060016 59 331 1.0 2.0 0.00 0.00 0.00 22 1019.7
20260510054523 59 325 0.0 2.0 0.00 0.00 0.00 22 1019.4
20260510053004 60 324 0.0 2.0 0.00 0.00 0.00 21 1019.3
20260510051507 60 342 0.0 2.0 0.00 0.00 0.00 21 1019.2
20260510050014 61 342 0.0 2.0 0.00 0.00 0.00 20 1019.1
20260510044524 63 342 0.0 2.0 0.00 0.00 0.00 19 1019.0
20260510043022 67 350 0.0 6.0 0.00 0.00 0.00 17 1018.9
20260510041507 67 343 3.0 6.0 0.00 0.00 0.00 17 1018.9
20260510040012 67 294 1.0 3.0 0.00 0.00 0.00 19 1019.1
20260510034516 69 275 1.0 2.0 0.00 0.00 0.00 17 1018.8
20260510033020 70 340 1.0 5.0 0.00 0.00 0.00 17 1018.7
20260510031525 69 254 2.0 9.0 0.00 0.00 0.00 18 1018.9
20260510030011 71 295 0.0 8.0 0.00 0.00 0.00 17 1018.8
20260510024519 71 336 5.0 13.0 0.00 0.00 0.00 17 1018.5
20260510023022 71 346 5.0 15.0 0.00 0.00 0.00 17 1018.4
20260510021528 72 342 1.0 3.0 0.00 0.00 0.00 17 1018.1
20260510020029 72 291 3.0 10.0 0.00 0.00 0.00 17 1017.9
20260510014510 72 342 3.0 8.0 0.00 0.00 0.00 16 1017.8
20260510013017 73 346 2.0 11.0 0.00 0.00 0.00 15 1017.7
20260510011520 74 252 2.0 8.0 0.00 0.00 0.00 14 1017.3
20260510010024 75 141 1.0 7.0 0.00 0.00 0.00 14 1017.1
20260510004510 76 254 3.0 7.0 0.00 0.00 0.00 13 1017.1
20260510003023 76 39 2.0 5.0 0.00 0.00 0.00 12 1017.2
20260510001518 77 325 1.0 4.0 0.00 0.00 0.00 12 1017.1
20260510000022 77 352 2.0 10.0 0.00 0.00 0.00 12 1017.1
20260509234526 80 296 5.0 9.0 0.00 0.00 0.00 11 1017.1
20260509233021 80 281 5.0 10.0 0.00 0.00 0.00 11 1017.3
20260509231516 80 236 3.0 8.0 0.00 0.00 0.00 11 1017.2
20260509230022 80 326 4.0 11.0 0.00 0.00 0.00 11 1017.4
20260509224531 80 360 4.0 12.0 0.00 0.00 0.00 11 1017.3
20260509223026 80 313 5.0 19.0 0.00 0.00 0.00 11 1017.6
20260509221517 80 360 3.0 12.0 0.00 0.00 0.00 11 1017.6